Chignik, AK

5:54 PM AKDT on April 28, 2017 (GMT -0800)
Chignik

Weather History for PAJC - August, 2013

Change the Weather History Date:

Monday, August 26, 2013

  Actual Average Record
Temperature  
Mean Temperature 52 °F -  
Max Temperature 55 °F 55 °F 70 °F (2016)
Min Temperature 50 °F 48 °F 42 °F (2011)
Degree Days  
Heating Degree Days 12    
Growing Degree Days 2 (Base 50)    
Moisture  
Dew Point 46 °F    
Average Humidity 78    
Maximum Humidity 88    
Minimum Humidity 71    
Precipitation  
Precipitation 0.16 in - - ()
Sea Level Pressure  
Sea Level Pressure 29.78 in    
Wind  
Wind Speed 9 mph (NW)    
Max Wind Speed 20 mph    
Max Gust Speed 25 mph    
Visibility 10 miles    
Events      
Averages and records for this station are not official NWS values.
T = Trace of Precipitation, MM = Missing Value Source: NWS Daily Summary

Daily Weather History Graph

Daily Weather History Graph

Search for Another Location

Airport or City:

Trip Planner

Search our weather history database for the weather conditions in past years. The results will help you decide how hot, cold, wet, or windy it might be!

Date:

Astronomy

Aug. 26, 2013 Rise Set
Actual Time 7:26 AM AKDT 9:42 PM AKDT
Civil Twilight 6:45 AM AKDT 10:23 PM AKDT
Nautical Twilight 5:52 AM AKDT 11:15 PM AKDT
Astronomical Twilight 4:47 AM AKDT 12:18 AM AKDT
Moon 11:40 PM AKDT (8/26) 2:57 PM AKDT (8/26)
Length of Visible Light 15h 38m
Length of Day
14h 16m
Waning Gibbous, 65% of the Moon is Illuminated
Aug 26
Waning Gibbous
Aug 28
Last Quarter
Sep 5
New
Sep 12
First Quarter
Sep 19
Full

Hourly Weather History & Observations

Time (AKDT) Temp. Dew Point Humidity Pressure Visibility Wind Dir Wind Speed Gust Speed Precip Events Conditions
12:16 AM 53.6 °F 44.6 °F 72% 29.85 in 10.0 mi WNW 15.0 mph 20.7 mph N/A   Mostly Cloudy
12:36 AM 53.6 °F 44.6 °F 72% 29.85 in 10.0 mi WNW 19.6 mph 25.3 mph N/A   Mostly Cloudy
12:56 AM 53.6 °F 44.6 °F 72% 29.84 in 10.0 mi WNW 13.8 mph 20.7 mph N/A   Mostly Cloudy
1:16 AM 51.8 °F 44.6 °F 76% 29.84 in 10.0 mi WNW 13.8 mph - N/A   Mostly Cloudy
1:36 AM 53.6 °F 44.6 °F 72% 29.86 in 10.0 mi West 12.7 mph 20.7 mph N/A   Mostly Cloudy
1:56 AM 53.6 °F 44.6 °F 72% 29.85 in 10.0 mi West 15.0 mph 20.7 mph N/A   Mostly Cloudy
2:16 AM 53.6 °F 44.6 °F 72% 29.85 in 10.0 mi WNW 11.5 mph 17.3 mph N/A   Mostly Cloudy
2:36 AM 53.6 °F 44.6 °F 72% 29.87 in 10.0 mi West 13.8 mph 23.0 mph N/A   Mostly Cloudy
2:56 AM 53.6 °F 44.6 °F 72% 29.86 in 10.0 mi WNW 12.7 mph 25.3 mph N/A   Mostly Cloudy
3:16 AM 53.6 °F 44.6 °F 72% 29.86 in 10.0 mi West 10.4 mph 21.9 mph N/A   Overcast
3:36 AM 53.6 °F 44.6 °F 72% 29.86 in 10.0 mi WNW 11.5 mph 23.0 mph N/A   Overcast
3:56 AM 53.6 °F 44.6 °F 72% 29.85 in 10.0 mi West 11.5 mph 19.6 mph N/A   Overcast
4:16 AM 51.8 °F 44.6 °F 76% 29.84 in 10.0 mi West 12.7 mph 18.4 mph N/A   Overcast
4:36 AM 53.6 °F 44.6 °F 72% 29.84 in 10.0 mi West 13.8 mph 18.4 mph N/A   Overcast
4:56 AM 53.6 °F 44.6 °F 72% 29.84 in 10.0 mi NW 8.1 mph - N/A   Overcast
5:16 AM 53.6 °F 44.6 °F 72% 29.84 in 10.0 mi NW 6.9 mph - N/A   Overcast
5:36 AM 53.6 °F 44.6 °F 72% 29.83 in 10.0 mi NNW 8.1 mph - N/A   Overcast
5:56 AM 51.8 °F 44.6 °F 76% 29.83 in 10.0 mi WNW 4.6 mph - N/A   Overcast
6:16 AM 51.8 °F 44.6 °F 76% 29.82 in 10.0 mi WNW 8.1 mph - N/A   Overcast
6:36 AM 51.8 °F 44.6 °F 76% 29.82 in 10.0 mi NNW 8.1 mph - N/A   Mostly Cloudy
6:56 AM 51.8 °F 44.6 °F 76% 29.81 in 10.0 mi NW 5.8 mph - N/A   Mostly Cloudy
7:16 AM 51.8 °F 44.6 °F 76% 29.80 in 10.0 mi WSW 5.8 mph - N/A   Partly Cloudy
7:36 AM 51.8 °F 44.6 °F 76% 29.81 in 10.0 mi WNW 5.8 mph - N/A   Scattered Clouds
7:56 AM 51.8 °F 44.6 °F 76% 29.80 in 10.0 mi SSE 5.8 mph - N/A   Overcast
8:16 AM 51.8 °F 44.6 °F 76% 29.79 in 10.0 mi SSE 3.5 mph - N/A   Overcast
8:36 AM 51.8 °F 44.6 °F 76% 29.78 in 10.0 mi Calm Calm - N/A   Overcast
8:56 AM 51.8 °F 44.6 °F 76% 29.78 in 10.0 mi Calm Calm - N/A   Overcast
9:16 AM 51.8 °F 44.6 °F 76% 29.77 in 10.0 mi Calm Calm - N/A   Overcast
9:36 AM 51.8 °F 46.4 °F 82% 29.76 in 10.0 mi Calm Calm - N/A   Overcast
9:56 AM 51.8 °F 46.4 °F 82% 29.76 in 9.0 mi Calm Calm - N/A   Overcast
10:16 AM 51.8 °F 46.4 °F 82% 29.75 in 10.0 mi Calm Calm - N/A   Overcast
10:36 AM 51.8 °F 46.4 °F 82% 29.75 in 10.0 mi NNE 5.8 mph - N/A   Overcast
10:56 AM 51.8 °F 46.4 °F 82% 29.76 in 10.0 mi North 5.8 mph - N/A   Overcast
11:16 AM 51.8 °F 46.4 °F 82% 29.76 in 10.0 mi NNE 4.6 mph - N/A   Overcast
11:36 AM 51.8 °F 46.4 °F 82% 29.75 in 10.0 mi NNE 3.5 mph - N/A   Overcast
11:56 AM 51.8 °F 46.4 °F 82% 29.74 in 8.0 mi North 3.5 mph - 0.01 in   Overcast
12:16 PM 51.8 °F 46.4 °F 82% 29.74 in 7.0 mi North 3.5 mph - N/A   Overcast
12:36 PM 51.8 °F 46.4 °F 82% 29.73 in 10.0 mi Calm Calm - N/A   Overcast
12:56 PM 51.8 °F 46.4 °F 82% 29.72 in 8.0 mi SW 3.5 mph - N/A   Overcast
1:16 PM 51.8 °F 46.4 °F 82% 29.72 in 10.0 mi Calm Calm - N/A   Overcast
1:36 PM 51.8 °F 46.4 °F 82% 29.73 in 8.0 mi NNW 3.5 mph - N/A   Overcast
1:56 PM 50.0 °F 46.4 °F 87% 29.72 in 3.0 mi Calm Calm - 0.04 in   Overcast
2:16 PM 50.0 °F 46.4 °F 87% 29.72 in 8.0 mi North 5.8 mph - 0.07 in   Overcast
2:36 PM 50.0 °F 46.4 °F 87% 29.72 in 10.0 mi North 5.8 mph - 0.08 in   Overcast
2:56 PM 50.0 °F 46.4 °F 87% 29.72 in 10.0 mi North 3.5 mph - 0.08 in   Overcast
3:16 PM 50.0 °F 46.4 °F 87% 29.72 in 10.0 mi Calm Calm - N/A   Overcast
3:36 PM 50.0 °F 46.4 °F 87% 29.72 in 10.0 mi Calm Calm - N/A   Overcast
3:56 PM 51.8 °F 46.4 °F 82% 29.71 in 10.0 mi NNE 3.5 mph - 0.01 in   Overcast
4:16 PM 51.8 °F 48.2 °F 88% 29.71 in 10.0 mi NNE 6.9 mph - 0.01 in   Overcast
4:36 PM 51.8 °F 48.2 °F 88% 29.72 in 10.0 mi NNE 5.8 mph - 0.01 in   Overcast
4:56 PM 51.8 °F 48.2 °F 88% 29.72 in 10.0 mi NE 5.8 mph - 0.01 in   Overcast
5:16 PM 51.8 °F 46.4 °F 82% 29.72 in 10.0 mi NE 6.9 mph - N/A   Overcast
5:36 PM 51.8 °F 48.2 °F 88% 29.72 in 10.0 mi ESE 4.6 mph - N/A   Overcast
5:56 PM 53.6 °F 48.2 °F 82% 29.72 in 10.0 mi ESE 3.5 mph - N/A   Mostly Cloudy
6:16 PM 53.6 °F 46.4 °F 77% 29.72 in 10.0 mi East 4.6 mph - N/A   Overcast
6:36 PM 53.6 °F 46.4 °F 77% 29.72 in 10.0 mi East 5.8 mph - N/A   Mostly Cloudy
6:56 PM 53.6 °F 46.4 °F 77% 29.74 in 10.0 mi North 5.8 mph - N/A   Overcast
7:16 PM 53.6 °F 48.2 °F 82% 29.74 in 10.0 mi Calm Calm - N/A   Overcast
7:36 PM 53.6 °F 46.4 °F 77% 29.75 in 10.0 mi Calm Calm - N/A   Overcast
7:56 PM 53.6 °F 46.4 °F 77% 29.76 in 10.0 mi NNW 4.6 mph - N/A   Overcast
8:16 PM 51.8 °F 46.4 °F 82% 29.76 in 10.0 mi SSE 3.5 mph - N/A   Overcast
8:36 PM 53.6 °F 46.4 °F 77% 29.76 in 10.0 mi Calm Calm - N/A   Overcast
8:56 PM 53.6 °F 46.4 °F 77% 29.77 in 10.0 mi Calm Calm - N/A   Overcast
9:16 PM 53.6 °F 48.2 °F 82% 29.77 in 10.0 mi SSE 4.6 mph - N/A   Overcast
9:36 PM 53.6 °F 48.2 °F 82% 29.78 in 10.0 mi Calm Calm - N/A   Overcast
9:56 PM 53.6 °F 48.2 °F 82% 29.79 in 10.0 mi Calm Calm - N/A   Overcast
10:16 PM 55.4 °F 46.4 °F 72% 29.80 in 10.0 mi NW 6.9 mph 16.1 mph 0.01 in   Overcast
10:36 PM 55.4 °F 46.4 °F 72% 29.80 in 10.0 mi NNW 8.1 mph - 0.01 in   Overcast
10:56 PM 53.6 °F 44.6 °F 72% 29.81 in 10.0 mi WNW 9.2 mph - 0.01 in   Overcast
11:16 PM 53.6 °F 44.6 °F 72% 29.83 in 10.0 mi NW 8.1 mph - N/A   Overcast
11:36 PM 53.6 °F 44.6 °F 72% 29.83 in 10.0 mi WNW 10.4 mph 16.1 mph N/A   Scattered Clouds
11:56 PM 51.8 °F 42.8 °F 71% 29.83 in 10.0 mi NW 9.2 mph - N/A   Clear